User: anonymous   Login
Location: Prairie State College
(41.5244°N, 87.6382°W)
Time: 07:09:04
(UTC-06:00)
Language:

ARGOS Delta rocket - Orbit

View from above orbital plane
View from above orbital plane
View from above satellite
View from above satellite

Ground track
Ground track

The orbit data is extracted from the following two-line orbital elements,

1 25637U 99008D   14326.87582031  .00000371  00000-0  99239-4 0  6432
2 25637 096.4871 071.5281 0143755 023.0963 085.8774 14.46058484830129
Epoch (UTC): 22 November 2014 21:01:10
Eccentricity: 0.0143755
inclination: 96.4871°
perigee height: 636 km
apogee height: 841 km
right ascension of ascending node: 71.5281°
argument of perigee: 23.0963°
revolutions per day: 14.46058484
mean anomaly at epoch: 85.8774°
orbit number at epoch: 83012

The dashed part of the orbit path shows where the satellite is in the earth's shadow,  

DLR